Powrót do katalogu

THORAD AGENA D DEB

AktywnySSO
NORAD 4766·DEBRIS·🇺🇸 United States

Wystrzelony Apr 8, 1970 z Vandenberg Space Force Base

Loading…

Następne Przeloty

TLE

Source: Space-Track
1  4766U 70025DL  26223.93497962  .00000009  00000-0  81162-4 0  9992
2  4766 100.1414  18.8090 0008906 209.7514 301.8943 13.55955384784187

Śledź THORAD AGENA D DEB w czasie rzeczywistym z AllMySat

Download on the App Store